EW5860 Weather Reports


time (UTC)temp
C
wind
direction
speed
KPH
gust
KPH
rain 1hr
cm
rain 24hr
cm
rain mn
cm
humidity
%
barometer
mb
20260903120022 21 169 11.3 27.4 0.00 3.53 3.25 96 1015.0
20260903114521 20 229 8.0 24.1 0.00 3.56 3.25 97 1014.8
20260903113027 20 221 9.7 19.3 0.03 3.56 3.25 97 1014.5
20260903111517 20 198 6.4 17.7 0.03 3.56 3.25 98 1014.9
20260903110024 20 163 1.6 17.7 0.03 3.56 3.25 98 1015.5
20260903104513 20 215 0.0 3.2 0.03 3.56 3.25 98 1016.3
20260903103012 20 49 0.0 4.8 0.00 3.53 3.23 98 1016.8
20260903101511 20 225 4.8 19.3 0.00 3.53 3.23 98 1016.2
20260903100011 20 213 9.7 22.5 0.08 3.53 3.23 98 1016.1
20260903094523 20 199 6.4 22.5 0.15 3.53 3.23 98 1016.0
20260903093009 20 183 6.4 14.5 0.28 3.53 3.23 99 1016.3
20260903091508 19 224 3.2 16.1 0.36 3.53 3.23 98 1015.8
20260903090007 19 227 0.0 9.7 0.91 3.45 3.15 98 1016.7
20260903084506 19 240 0.0 3.2 1.09 3.38 3.05 98 1016.5
20260903083005 19 221 0.0 4.8 0.99 3.25 2.90 98 1016.6
20260903081503 19 123 0.0 1.6 0.94 3.20 2.84 98 1016.8
20260903080005 20 250 9.7 24.1 0.25 2.51 2.18 98 1018.9
20260903074504 20 37 0.0 6.4 0.03 2.29 1.96 98 1017.4
20260903073002 20 232 0.0 0.0 0.00 2.26 1.93 98 1017.3
20260903071502 20 232 0.0 1.6 0.00 2.26 1.93 98 1016.9
20260903064604 20 232 0.0 1.6 0.00 2.26 1.93 98 1016.7
20260903063059 20 54 0.0 3.2 0.08 2.26 1.93 98 1017.0
20260903061602 20 222 0.0 3.2 1.78 2.26 1.93 98 1016.9
20260903060058 20 241 1.6 6.4 1.85 2.26 1.93 98 1017.2
20260903054558 20 92 0.0 6.4 1.88 2.26 1.93 98 1017.5
20260903053107 20 102 1.6 6.4 1.80 2.16 1.83 98 1017.7
20260903051555 21 296 1.6 8.0 0.10 0.46 0.13 98 1019.1
20260903050048 21 339 0.0 1.6 0.08 0.41 0.08 98 1018.1
20260903044554 21 273 0.0 1.6 0.05 0.38 0.05 98 1018.2
20260903043045 21 251 0.0 1.6 0.03 0.36 0.03 98 1017.3
20260903041543 21 106 0.0 0.0 0.03 0.36 0.03 98 1017.5
20260903040041 21 112 0.0 0.0 0.00 0.33 0.00 98 1017.7
20260903034540 21 112 0.0 0.0 0.00 0.33 0.33 98 1017.5
20260903033040 21 112 0.0 0.0 0.00 0.33 0.33 98 1018.0
20260903031539 21 112 0.0 0.0 0.00 0.33 0.33 98 1018.0
20260903030043 21 112 0.0 0.0 0.00 0.33 0.33 98 1017.4
20260903024543 21 112 0.0 0.0 0.00 0.33 0.33 98 1017.7
20260903023038 21 112 0.0 0.0 0.00 0.33 0.33 98 1017.9
20260903021538 21 110 0.0 0.0 0.00 0.33 0.33 98 1017.9
20260903020036 21 110 0.0 1.6 0.00 0.33 0.33 98 1017.5
20260903014538 21 342 0.0 1.6 0.00 0.33 0.33 98 1017.5
20260903013036 21 51 0.0 1.6 0.00 0.33 0.33 98 1017.5
20260903011541 21 113 0.0 0.0 0.00 0.33 0.33 98 1017.5
20260903010035 21 112 0.0 0.0 0.00 0.33 0.33 98 1017.7
20260903004534 21 115 0.0 0.0 0.00 0.36 0.33 98 1017.7
20260903003035 21 121 0.0 0.0 0.00 0.36 0.33 98 1017.7
20260903001533 21 121 0.0 3.2 0.00 0.36 0.33 98 1017.5
20260903000033 21 295 0.0 6.4 0.00 0.36 0.33 98 1017.3
20260902234532 21 133 0.0 1.6 0.00 1.57 0.33 97 1017.0
20260902233037 21 258 0.0 1.6 0.00 1.57 0.33 97 1017.2
20260902231536 21 98 0.0 4.8 0.00 1.57 0.33 97 1017.3
20260902230031 21 110 0.0 3.2 0.00 1.57 0.33 97 1017.4
20260902224530 21 202 0.0 4.8 0.00 1.57 0.33 97 1017.5
20260902223031 21 220 0.0 0.0 0.00 1.57 0.33 97 1017.6
20260902221529 21 182 0.0 3.2 0.00 1.57 0.33 97 1017.7
20260902220031 22 322 0.0 1.6 0.00 1.57 0.33 97 1017.8
20260902214529 22 118 0.0 3.2 0.00 1.57 0.33 97 1018.0
20260902213028 22 293 0.0 1.6 0.00 1.57 0.33 96 1018.0
20260902211527 22 275 0.0 1.6 0.00 1.57 0.33 97 1017.7
20260902210033 22 115 0.0 3.2 0.00 1.57 0.33 96 1017.5
20260902204537 22 138 0.0 3.2 0.00 1.57 0.33 97 1017.1
20260902203026 22 77 0.0 1.6 0.00 1.57 0.33 96 1017.4
20260902201530 22 77 0.0 0.0 0.00 1.57 0.33 97 1017.7
20260902200025 22 77 0.0 1.6 0.00 1.57 0.33 97 1018.1
20260902194523 22 350 0.0 4.8 0.00 1.57 0.33 97 1018.0
20260902193024 22 244 0.0 1.6 0.03 1.57 0.33 97 1017.5
20260902191523 22 275 0.0 1.6 0.03 1.57 0.33 97 1017.8
20260902190022 22 200 0.0 4.8 0.03 1.57 0.33 97 1017.7
20260902184522 22 226 0.0 0.0 0.05 1.57 0.33 98 1017.9
20260902183020 21 228 0.0 0.0 0.08 1.55 0.30 98 1018.4
20260902181520 21 228 0.0 0.0 0.15 1.55 0.30 98 1018.7
20260902180019 21 228 0.0 0.0 0.23 1.55 0.30 98 1018.7
20260902174517 21 228 0.0 1.6 0.20 1.52 0.28 97 1019.3
20260902173016 21 227 0.0 1.6 0.15 1.45 0.23 97 1019.0
20260902171515 21 220 0.0 1.6 0.08 1.40 0.15 97 1019.0
20260902170014 21 96 0.0 0.0 0.00 1.32 0.08 97 1019.5
20260902164518 21 96 0.0 0.0 0.00 1.32 0.08 97 1020.0
20260902163011 21 119 0.0 3.2 0.00 1.32 0.08 97 1019.7
20260902161511 21 92 0.0 1.6 0.00 1.32 0.08 97 1019.6
20260902160010 21 220 0.0 0.0 0.00 1.32 0.08 98 1019.7
20260902154512 21 111 0.0 3.2 0.00 1.32 0.08 98 1019.1
20260902153008 21 150 0.0 4.8 0.00 1.32 0.08 98 1019.0
20260902151508 21 101 0.0 4.8 0.00 1.32 0.08 98 1019.2
20260902150007 21 49 0.0 1.6 0.00 1.32 0.08 98 1019.2
20260902144506 21 11 0.0 1.6 0.00 1.32 0.08 98 1019.5
20260902143006 20 110 0.0 4.8 0.00 1.32 0.08 98 1019.4
20260902141515 20 32 0.0 1.6 0.00 1.32 0.08 98 1019.6
20260902140002 20 88 0.0 3.2 0.00 1.32 0.08 98 1019.3
20260902134502 20 268 0.0 3.2 0.00 1.35 0.08 98 1019.0
20260902133002 20 150 0.0 6.4 0.03 1.35 0.08 98 1019.0
20260902131559 20 309 0.0 1.6 0.03 1.35 0.08 98 1018.9
20260902130058 20 111 0.0 3.2 0.03 1.35 0.08 98 1018.5
20260902124605 20 108 0.0 3.2 0.03 1.35 0.08 98 1018.6
20260902123056 20 144 0.0 3.2 0.00 1.32 0.05 98 1018.6
20260902121602 20 24 0.0 1.6 0.03 1.32 0.05 98 1018.6